User: anonymous   Login
Location: Fairmont
(43.6520°N, 94.4610°W)
Time: 23:36:17
(UTC-05:00)
Language:

Cosmos-2242 - Orbit

View from above orbital plane
View from above orbital plane
View from above satellite
View from above satellite

Ground track
Ground track

The orbit data is extracted from the following two-line orbital elements,

1 22626U 93024A   15108.19255193  .00002181  00000-0  24120-3 0  9990
2 22626 082.5226 067.1536 0018104 221.7246 138.2591 14.86846681188571
Epoch (UTC): 18 April 2015 04:37:16
Eccentricity: 0.0018104
inclination: 82.5226°
perigee height: 595 km
apogee height: 620 km
right ascension of ascending node: 67.1536°
argument of perigee: 221.7246°
revolutions per day: 14.86846681
mean anomaly at epoch: 138.2591°
orbit number at epoch: 18857

The dashed part of the orbit path shows where the satellite is in the earth's shadow,  

DLR